wCOLYR

 

 

Western Colorado One Loft Youth Race - Slick Rock

Station: Slick Rock - T Race

Distance: 62.601 Miles    

Release: 14-Sep-2021 07:45

Weather Release:    Arrival:

Wind at Release:     Wind at Arrival:

Temp at Release: °    Temp at Arrival: °

Lofts: 95

Birds: 132

Clocked: 131

Good Luck to Everyone!
Drops Pos Breeder Pigeon Name Color Sex Ent Arrival Speed To Win Elg Pd
1 Maury Jr Loft - CO 0061-AU21-GJC DCWF H 1 09:05:11.40 1373.968 00:00:00 Yes
2 Angel Loft 3 - CO 0055-AU21-GJC BB H 1 09:05:12.50 1373.654 00:00:01 Yes
3 Sassy Squatch Loft - NC 0132-IF21-TRC BB H 1 09:05:13.80 1373.283 00:00:02 Yes
4 Erins Loft - CO 0429-AU21-WEIR Michael BC H 1 09:05:15.00 1372.940 00:00:04 Yes
5 Charlottes Loft - CA 25310-AU21-AA BC H 1 09:05:16.80 1372.427 00:00:05 Yes
6 Afton Young Loft - ID 24791-AU21-JEDD BC H 1 09:05:17.50 1372.228 00:00:06 Yes
7 Hayes Brothers Loft 1 - NC 21405-AU21-FAY BB H 1 09:05:18.70 1371.886 00:00:07 Yes
8 Paul Jackson Loft - TX 0202-AU21-AMA Silver Joe SILV H 1 09:05:21.40 1371.118 00:00:10 Yes
8 Laqu Lofts - MI 6626-AU21-ARPU Porsche Spyder BC H 1 09:05:21.40 1371.118 00:00:10 Yes
10 Geon Loft - WI 0010-AU21-FRNT BC H 1 09:05:22.60 1370.777 00:00:11 Yes
11 E44 Jr Loft - TX 0406-AU21-PINE DC H 1 09:05:24.60 1370.208 00:00:13 Yes
12 Megan's Loft - CA 2148-AU21-GROE Zuko BB H 1 09:05:25.80 1369.868 00:00:14 Yes
13 Van Eyk Family Loft 1 - VA 0029-AU21-SVRP Ida BB H 1 09:05:27.50 1369.385 00:00:16 Yes
14 Hmns 5 - CO 21545-AU21-FH BB H 1 09:05:29.20 1368.903 00:00:18 Yes
15 Green Family Lofts 3 - ID 4505-AU21-WII Takis DC H 1 09:05:30.00 1368.677 00:00:19 Yes
16 Lilly Loft - CO 89970-AU21-ARPU BCSP H 1 09:05:30.40 1368.563 00:00:19 Yes
17 Sassy Squatch Loft - NC 0134-IF21-TRC BB H 2 09:05:31.60 1368.223 00:00:20 Yes
18 Whitlock Loft - SD 2163-AU21-LCR Bucky BB H 1 09:05:33.40 1367.714 00:00:22 Yes
19 4h Thunderbirds 1 - WA 0103-AU21-RPM BB H 1 09:05:36.10 1366.950 00:00:25 Yes
19 Hund Family Loft Anthony - CO 0002-AU21-GJC Archer BB H 1 09:05:36.10 1366.950 00:00:25 Yes
21 Green Family Lofts 3 - ID 4503-AU21-WII Kojo BC H 2 09:05:38.50 1366.272 00:00:27 Yes
22 208Lofts-LandonNield - ID 0202-AU21-L208 BB H 1 09:05:39.30 1366.046 00:00:28 Yes
23 Whitlock Loft - SD 2161-AU21-LCR Ozzy BC H 2 09:05:40.30 1365.764 00:00:29 Yes
24 CAsLoft2 - MN 2711-AU21-FOYS Flash BB H 1 09:05:43.00 1365.003 00:00:32 Yes
25 Baldwin/Tilson - NC 1165-AU21-TENT BC H 1 09:05:44.30 1364.636 00:00:33 Yes
26 Josie Loft - TX 0418-AU21-WEIR BC H 1 09:05:47.20 1363.820 00:00:36 Yes
27 Megan's Loft - CA 0213-AU21-COM Shooting Star BB H 2 09:05:48.00 1363.595 00:00:37 Yes
28 Isaac Of Nightfalls Loft - MI 0310-AU21-GRM BB H 1 09:05:48.40 1363.482 00:00:37 Yes
29 Born2raceloft - MN 43054-AU21-ARPU BB H 1 09:05:49.40 1363.201 00:00:38 Yes
30 Wild Wings - GP and R - MI 0099-AU21-FC BC H 1 09:05:52.40 1362.358 00:00:41 Yes
31 Shovers Lakeside Lofts - OH 3041-AU21-FOYS Blue Grass BB H 1 09:05:53.90 1361.937 00:00:43 Yes
32 Jaxon Of Fod - IA 46152-AU21-ARPU BBSP H 1 09:05:54.30 1361.825 00:00:43 Yes
33 Baldwin/Tilson - NC 1164-AU21-TENT BB H 2 09:05:54.80 1361.685 00:00:43 Yes
34 Ve Family Loft 2 - VA 4217-AU21-FOYS Speedy BC H 1 09:05:57.80 1360.844 00:00:46 Yes
35 Tater Bug Loft - NC 0125-IF21-TRC INDI H 1 09:05:58.80 1360.564 00:00:47 Yes
36 David Of Seven Strong - MD 102021-AU21-ARPU Spider Man BC H 1 09:06:02.40 1359.556 00:00:51 Yes
37 Super K Loft - MN 0530-AU21-VIK Kj BC H 1 09:06:03.80 1359.165 00:00:52 Yes
38 Mack Watkins - NC 21215-AU21-FAY BB H 1 09:06:05.00 1358.830 00:00:54 Yes
39 4h Thunderbirds 3 - WA 6579-AU21-STIL BC H 1 09:06:07.30 1358.188 00:00:56 Yes
40 David Of Seven Strong - MD 10787-AU21-FOYS Blue Ranger BC H 2 09:06:08.70 1357.797 00:00:57 Yes
41 DonateLife - NC 21404-AU21-FAY DC H 1 09:06:11.70 1356.961 00:01:00 Yes
42 Ecuevas - TX 0887-AU21-DALL BB H 1 09:06:14.70 1356.126 00:01:03 Yes
43 208Lofts-ColtonNield - ID 0203-AU21-L208 BBPI H 1 09:06:16.40 1355.653 00:01:05 Yes
44 Josie Loft - TX 0420-AU21-WEIR BC H 2 09:06:19.80 1354.709 00:01:08 Yes
45 Pringles Loft - CA 17515-AU21-JEDD Super Potatot BCWF H 1 09:06:21.70 1354.181 00:01:10 Yes
46 Super Saiyan - WI 0014-AU21-FRNT BB H 1 09:06:22.20 1354.043 00:01:11 Yes
47 Earthquake - NV 0127-AU21-JEDD 1579-6066 BBWF H 1 09:06:25.00 1353.267 00:01:14 Yes
48 Wick 54 - MS 7003-AU21-SMRP Comet BBWF H 1 09:06:28.80 1352.215 00:01:17 Yes
49 Isaiah Of Nightfalls Loft - MI 0311-AU21-GRM BB H 1 09:06:30.00 1351.883 00:01:19 Yes
50 Trenton Of Nightfalls Loft - MI 0301-AU21-GRM BB H 1 09:06:33.40 1350.944 00:01:22 Yes
51 Jalyssa’s Loft - CO 1468-AU21-PPH BC H 1 09:06:33.80 1350.833 00:01:22 Yes
52 Johnnys Loft - FL 0090-AU21-MAZZ Night Sky GRIZ H 1 09:06:34.80 1350.557 00:01:23 Yes
53 Lilly Loft - CO 89968-AU21-ARPU DC H 2 09:06:38.10 1349.647 00:01:27 Yes
54 Green Family Lofts 1 - ID 4504-AU21-WII Cutie BC H 1 09:06:38.70 1349.482 00:01:27 Yes
55 Evelyn Of Seven Strong - MD 102022-AU21-ARPU King George SLTW H 1 09:06:39.50 1349.262 00:01:28 Yes
56 CAsLoft1 - MN 2713-AU21-FOYS Nap Time GRIZ H 1 09:06:41.90 1348.601 00:01:31 Yes
57 Le Loft - CO 89965-AU21-ARPU BC H 1 09:06:45.90 1347.501 00:01:35 Yes
58 Santy Loft - MN 3000-AU21-MM BB H 1 09:06:47.40 1347.090 00:01:36 Yes
59 Effie's Loft - NC 21205-AU21-FAY BCWF H 1 09:06:48.90 1346.678 00:01:38 Yes
60 Parkers Loft1 - OH 1105-AU21-FLU BB H 1 09:06:52.60 1345.664 00:01:41 Yes
61 Effie's Loft - NC 21216-AU21-FAY BB H 2 09:06:53.80 1345.335 00:01:42 Yes
62 Isaiah Of Nightfalls Loft - MI 0321-AU21-GRM BB H 2 09:06:55.70 1344.815 00:01:44 Yes
63 Green Family Lofts 2 - ID 4502-AU21-WII Red RC H 1 09:06:57.60 1344.295 00:01:46 Yes
64 Gavins Loft - IL 1157-AU21-JEDD Core-Al SILV H 1 09:07:15.30 1339.474 00:02:04 Yes
65 Plackemeier Emme -- Flying Clovers of NoMi - MI 95418-AU21-ARPU BC H 1 09:07:31.70 1335.038 00:02:20 Yes
66 James Of Seven Strong - MD 10799-AU21-FOYS Red Grizzle GRIZ H 1 09:07:41.20 1332.482 00:02:30 Yes
67 208Lofts-ColtonNield - ID 0201-AU21-L208 BC H 2 09:07:42.30 1332.186 00:02:31 Yes
67 Angel Loft 3 - CO 0056-AU21-GJC BC H 2 09:07:42.30 1332.186 00:02:31 Yes
69 Gauge Loft - CO 95406-AU21-ARPU BBWF H 1 09:07:45.00 1331.462 00:02:34 Yes
70 4h Thunderbirds 4 - WA 2132-AU21-HTHU BB H 1 09:07:46.90 1330.952 00:02:36 Yes
71 Laughlin Loft Jr - UT 46690-AU21-JEDD Trip Wire GRIZ H 1 09:07:47.80 1330.711 00:02:36 Yes
72 Mckenna 2 - CO 0408-AU21-GJC BCSP H 1 09:07:48.40 1330.551 00:02:37 Yes
73 Redlegs Loft - PA 13305-AU21-AA Easy Beach BB H 1 09:07:50.20 1330.069 00:02:39 Yes
74 Hmns 1 - CO 21530-AU21-FH BC H 1 09:07:53.20 1329.266 00:02:42 Yes
75 208Lofts-LandonNield - ID 0204-AU21-L208 DC H 2 09:07:54.00 1329.053 00:02:43 Yes
76 Mcuevas - TX 0896-AU21-DALL UNKN H 1 09:07:59.40 1327.611 00:02:48 Yes
77 Peytons Loft - OH 0948-AU21-GNEO BC H 1 09:07:59.90 1327.478 00:02:49 Yes
78 RandolphRacers - AL 0680-IF21-PAOF BB H 1 09:08:01.90 1326.945 00:02:51 Yes
79 Charlottes Loft - CA 25320-AU21-AA BB H 2 09:08:03.60 1326.492 00:02:52 Yes
80 Super C Loft - MN 0536-AU21-VIK Monkey King BBWF H 1 09:08:09.20 1325.004 00:02:58 Yes
81 El Locos Loft - CA 0010-AU21-HDC Loco Jr. BB H 1 09:08:17.70 1322.750 00:03:06 Yes
82 Erins Loft - CO 0412-AU21-WEIR Rosie BBWF H 2 09:08:20.70 1321.956 00:03:09 Yes
83 Glass - TX 95414-AU21-ARPU SILV H 1 09:08:24.70 1320.900 00:03:13 Yes
84 Wild Wings - GP and R - MI 0097-AU21-FC BB H 2 09:08:28.20 1319.977 00:03:17 Yes
85 Blanco Loft - IN 0007-AU21-BLAN Magic 7 BC H 1 09:08:29.20 1319.713 00:03:18 Yes
86 HundFamilyLoftMeghan - CO 0001-AU21-GJC RC H 1 09:08:39.00 1317.136 00:03:28 Yes
87 Ryker Of Murders Loft - CO 95407-AU21-ARPU Bumblebee BB H 1 09:08:44.70 1315.642 00:03:33 Yes
88 Monse Family Loft - CO 0025-AU21-TUNA BB H 1 09:08:47.30 1314.962 00:03:36 Yes
89 Harper - TX 88702-AU21-ARPU BBWF H 1 09:09:54.30 1297.667 00:04:43 Yes
90 Jaxon Of Murders Loft - CO 95405-AU21-ARPU Optimus BBWF H 1 09:09:55.40 1297.387 00:04:44 Yes
91 Johnnys Loft - FL 0091-AU21-MAZZ Oreo GRIZ H 2 09:09:56.40 1297.133 00:04:45 Yes
92 Alferez Loft #2 - NE 21009-AU21-SCIA Kurama BB H 1 09:09:59.20 1296.421 00:04:48 Yes
93 Mckenna 2 - CO 0418-AU21-GJC BC H 2 09:10:00.00 1296.217 00:04:49 Yes
94 Avree Loft - CO 95404-AU21-ARPU BB H 1 09:10:01.60 1295.811 00:04:50 Yes
95 Maury Jr Loft - CO 0053-AU21-GJC BB H 2 09:10:03.60 1295.303 00:04:52 Yes
96 Ve Family Loft 1 - VA 4206-AU21-FOYS Garmin BB H 1 09:10:04.00 1295.201 00:04:53 Yes
97 CAsLoft1 - MN 2712-AU21-FOYS Gap GRIZ H 2 09:10:05.80 1294.745 00:04:54 Yes
98 DonateLife - NC 21406-AU21-FAY BB H 2 09:10:07.00 1294.440 00:04:56 Yes
99 Super Saiyan - WI 0022-AU21-FRNT BB H 2 09:10:09.00 1293.934 00:04:58 Yes
100 Born2raceloft - MN 43053-AU21-ARPU BBWF H 2 09:10:21.60 1290.750 00:05:10 Yes

There are 131 bird records

Note: These Race Results are unofficial and subject to change until verified by the Race Committee and declared final.

 

windy FaceBook